QPF
0.00 0.00 0.00 0.00 0.00 0.00 0.00 0.00 0.00 0.00 0.00 0.00 0.00 0.00 0.00 0.00 0.00 0.00 0.00 0.00 0.00 0.00 0.00 0.00 0.00 0.00 0.00 0.00 0.00 0.00 0.00 0.00 0.00 0.00 0.00 0.00 0.00 0.01 0.00 0.00 0.01 0.04 0.01
0.00 0.00 0.00 0.00 0.00 0.00 0.00 0.00 0.00 0.00 0.00 0.00 0.00 0.00 0.00 0.00 0.00 0.00 0.00 0.00 0.00 0.00 0.00 0.00 0.00 0.00 0.00 0.00 0.00 0.00 0.00 0.00 0.00 0.00 0.00 0.00 0.01 0.01 0.00 0.00 0.01 0.02 0.00
0.00 0.00 0.00 0.00 0.00 0.00 0.00 0.00 0.00 0.00 0.00 0.00 0.00 0.00 0.00 0.00 0.00 0.00 0.00 0.00 0.00 0.00 0.00 0.00 0.00 0.00 0.00 0.00 0.00 0.00 0.00 0.00 0.00 0.00 0.00 0.00 0.00 0.00 0.00 0.00 0.00 0.00 0.00
0.00 0.00 0.00 0.00 0.00 0.00 0.00 0.00 0.00 0.00 0.00 0.00 0.00 0.00 0.00 0.00 0.00 0.00 0.00 0.00 0.00 0.00 0.00 0.00 0.00 0.00 0.00 0.00 0.00 0.00 0.00 0.00 0.00 0.00 0.00 0.00 0.00 0.00 0.00 0.00 0.00 0.00 0.00
0.00 0.00 0.00 0.00 0.00 0.00 0.00 0.00 0.00 0.00 0.00 0.00 0.00 0.00 0.00 0.00 0.00 0.00 0.00 0.00 0.00 0.00 0.00 0.00 0.00 0.00 0.00 0.00 0.00 0.00 0.00 0.00 0.00 0.00 0.00 0.00 0.00 0.00 0.00 0.00 0.00 0.00 0.00
0.00 0.00 0.00 0.00 0.00 0.00 0.00 0.00 0.00 0.00 0.00 0.00 0.00 0.00 0.00 0.00 0.00 0.00 0.00 0.00 0.00 0.00 0.00 0.00 0.00 0.00 0.00 0.00 0.00 0.00 0.00 0.00 0.00 0.00 0.00 0.00 0.01 0.01 0.01 0.01 0.00 0.00 0.00
0.00 0.00 0.00 0.00 0.00 0.00 0.00 0.00 0.00 0.00 0.00 0.00 0.00 0.00 0.00 0.00 0.00 0.00 0.00 0.00 0.00 0.00 0.00 0.00 0.00 0.00 0.00 0.00 0.00 0.00 0.00 0.00 0.00 0.00 0.00 0.01 0.03 0.02 0.08 0.13 0.10 0.07 0.04
0.00 0.00 0.00 0.00 0.00 0.00 0.00 0.00 0.00 0.00 0.00 0.00 0.00 0.00 0.00 0.00 0.00 0.00 0.00 0.00 0.00 0.00 0.00 0.00 0.00 0.00 0.00 0.00 0.00 0.00 0.01 0.01 0.01 0.02 0.01 0.01 0.01 0.02 0.11 0.19 0.19 0.18 0.16
0.00 0.00 0.00 0.00 0.00 0.00 0.00 0.00 0.00 0.00 0.00 0.00 0.00 0.00 0.00 0.00 0.00 0.00 0.00 0.00 0.00 0.00 0.00 0.00 0.00 0.00 0.00 0.00 0.00 0.01 0.03 0.03 0.01 0.04 0.02 0.01 0.02 0.02 0.04 0.07 0.10 0.14 0.11
0.00 0.00 0.00 0.00 0.00 0.00 0.00 0.00 0.00 0.00 0.00 0.00 0.00 0.00 0.00 0.00 0.00 0.00 0.00 0.00 0.00 0.00 0.00 0.00 0.00 0.00 0.00 0.00 0.01 0.03 0.04 0.02 0.00 0.00 0.00 0.01 0.02 0.03 0.03 0.04 0.05 0.09 0.08
0.00 0.00 0.00 0.00 0.00 0.00 0.00 0.00 0.00 0.00 0.00 0.00 0.00 0.00 0.00 0.00 0.00 0.00 0.00 0.00 0.00 0.00 0.00 0.01 0.00 0.01 0.02 0.01 0.02 0.05 0.03 0.00 0.00 0.00 0.00 0.00 0.00 0.01 0.03 0.04 0.04 0.05 0.08
0.00 0.00 0.00 0.00 0.00 0.00 0.00 0.00 0.00 0.00 0.00 0.00 0.01 0.01 0.01 0.02 0.02 0.00 0.00 0.00 0.00 0.00 0.01 0.01 0.02 0.03 0.05 0.02 0.04 0.07 0.01 0.00 0.00 0.00 0.00 0.00 0.00 0.01 0.02 0.02 0.04 0.05 0.06
0.00 0.00 0.00 0.00 0.00 0.00 0.00 0.00 0.00 0.01 0.04 0.03 0.03 0.03 0.04 0.04 0.04 0.04 0.04 0.01 0.01 0.00 0.01 0.05 0.09 0.05 0.03 0.05 0.05 0.06 0.03 0.02 0.01 0.00 0.00 0.00 0.01 0.04 0.07 0.07 0.08 0.06 0.07
0.00 0.00 0.00 0.00 0.00 0.00 0.00 0.01 0.01 0.02 0.04 0.05 0.06 0.06 0.08 0.07 0.07 0.08 0.06 0.03 0.02 0.04 0.06 0.05 0.05 0.05 0.07 0.07 0.08 0.09 0.08 0.08 0.05 0.05 0.06 0.02 0.02 0.05 0.09 0.10 0.08 0.08 0.09
0.00 0.00 0.00 0.00 0.00 0.00 0.01 0.01 0.01 0.01 0.02 0.03 0.05 0.05 0.09 0.15 0.16 0.15 0.09 0.08 0.06 0.11 0.15 0.13 0.13 0.14 0.17 0.17 0.13 0.10 0.11 0.11 0.10 0.11 0.08 0.05 0.02 0.03 0.06 0.08 0.07 0.08 0.09
0.00 0.00 0.00 0.00 0.00 0.00 0.01 0.01 0.02 0.03 0.03 0.03 0.05 0.08 0.21 0.27 0.22 0.20 0.17 0.14 0.09 0.11 0.19 0.26 0.27 0.30 0.24 0.24 0.18 0.13 0.12 0.11 0.11 0.13 0.10 0.07 0.04 0.02 0.03 0.06 0.08 0.08 0.07
0.00 0.00 0.00 0.01 0.02 0.05 0.06 0.05 0.04 0.04 0.05 0.09 0.16 0.23 0.32 0.42 0.42 0.41 0.30 0.15 0.11 0.17 0.22 0.25 0.25 0.35 0.28 0.25 0.21 0.19 0.19 0.17 0.15 0.14 0.12 0.08 0.04 0.03 0.02 0.03 0.06 0.07 0.07
0.00 0.00 0.01 0.01 0.05 0.14 0.13 0.11 0.08 0.07 0.08 0.13 0.27 0.35 0.35 0.42 0.45 0.41 0.28 0.17 0.18 0.21 0.22 0.22 0.20 0.31 0.33 0.32 0.29 0.23 0.22 0.22 0.17 0.15 0.11 0.08 0.06 0.02 0.01 0.01 0.01 0.03 0.05
0.00 0.00 0.01 0.02 0.06 0.12 0.12 0.10 0.10 0.08 0.07 0.10 0.17 0.22 0.20 0.17 0.18 0.19 0.14 0.13 0.13 0.10 0.10 0.11 0.16 0.28 0.30 0.34 0.36 0.23 0.16 0.15 0.11 0.10 0.08 0.04 0.04 0.03 0.01 0.02 0.01 0.00 0.02
0.00 0.00 0.00 0.01 0.03 0.05 0.05 0.05 0.04 0.04 0.04 0.04 0.05 0.07 0.06 0.05 0.05 0.05 0.04 0.04 0.06 0.05 0.04 0.06 0.06 0.10 0.12 0.20 0.23 0.15 0.11 0.08 0.07 0.06 0.04 0.02 0.01 0.01 0.00 0.01 0.01 0.00 0.00
0.00 0.00 0.00 0.00 0.01 0.01 0.01 0.01 0.01 0.01 0.01 0.01 0.01 0.01 0.01 0.01 0.01 0.01 0.00 0.00 0.01 0.01 0.01 0.01 0.01 0.02 0.03 0.08 0.11 0.09 0.07 0.04 0.04 0.04 0.03 0.01 0.00 0.00 0.00 0.00 0.00 0.00 0.00
0.00 0.00 0.00 0.00 0.00 0.00 0.00 0.00 0.00 0.00 0.00 0.00 0.00 0.00 0.00 0.00 0.00 0.00 0.00 0.00 0.00 0.00 0.00 0.00 0.00 0.00 0.00 0.02 0.04 0.07 0.07 0.05 0.03 0.01 0.02 0.01 0.00 0.00 0.00 0.00 0.00 0.00 0.00
0.00 0.00 0.00 0.00 0.00 0.00 0.00 0.00 0.00 0.00 0.00 0.00 0.00 0.00 0.00 0.00 0.00 0.00 0.00 0.00 0.00 0.00 0.00 0.00 0.00 0.00 0.00 0.00 0.02 0.05 0.04 0.02 0.03 0.02 0.01 0.01 0.01 0.00 0.00 0.00 0.00 0.00 0.00
0.00 0.00 0.00 0.00 0.00 0.00 0.00 0.00 0.00 0.00 0.00 0.00 0.00 0.00 0.00 0.00 0.00 0.00 0.00 0.00 0.00 0.00 0.01 0.01 0.01 0.02 0.02 0.01 0.01 0.02 0.02 0.02 0.02 0.02 0.01 0.00 0.01 0.01 0.00 0.00 0.00 0.00 0.00
0.00 0.00 0.00 0.00 0.00 0.00 0.00 0.00 0.00 0.00 0.00 0.00 0.00 0.00 0.00 0.00 0.00 0.00 0.00 0.00 0.01 0.01 0.01 0.02 0.02 0.04 0.04 0.04 0.03 0.03 0.04 0.03 0.03 0.02 0.01 0.01 0.02 0.01 0.01 0.01 0.01 0.01 0.01
0.00 0.00 0.00 0.00 0.01 0.01 0.00 0.00 0.00 0.00 0.00 0.00 0.00 0.00 0.00 0.00 0.00 0.00 0.00 0.00 0.00 0.01 0.01 0.02 0.02 0.03 0.04 0.05 0.05 0.06 0.06 0.06 0.03 0.03 0.03 0.03 0.05 0.06 0.06 0.04 0.03 0.04 0.05
MSLP
1010.88 1011.12 1011.53 1012.07 1012.64 1013.16 1013.55 1013.81 1013.92 1013.96 1013.97 1014.03 1014.19 1014.45 1014.79 1015.17 1015.53 1015.82 1016.01 1016.10 1016.11 1016.08 1016.05 1016.05 1016.10 1016.20 1016.33 1016.46 1016.55 1016.60 1016.60 1016.56 1016.51 1016.47 1016.46 1016.51 1016.61 1016.75 1016.92 1017.11 1017.29 1017.45 1017.60
1010.63 1010.98 1011.51 1012.16 1012.83 1013.42 1013.87 1014.14 1014.25 1014.25 1014.22 1014.24 1014.35 1014.58 1014.91 1015.27 1015.63 1015.91 1016.10 1016.17 1016.17 1016.13 1016.10 1016.12 1016.20 1016.33 1016.49 1016.65 1016.76 1016.81 1016.81 1016.76 1016.69 1016.64 1016.64 1016.69 1016.80 1016.96 1017.14 1017.33 1017.50 1017.65 1017.77
1010.44 1010.88 1011.51 1012.24 1013.00 1013.66 1014.15 1014.46 1014.58 1014.57 1014.53 1014.52 1014.60 1014.79 1015.08 1015.41 1015.72 1015.96 1016.11 1016.16 1016.15 1016.11 1016.10 1016.14 1016.26 1016.43 1016.63 1016.80 1016.92 1016.96 1016.93 1016.86 1016.77 1016.71 1016.70 1016.76 1016.89 1017.06 1017.26 1017.45 1017.62 1017.76 1017.87
1010.33 1010.84 1011.52 1012.32 1013.12 1013.83 1014.37 1014.71 1014.85 1014.87 1014.83 1014.82 1014.88 1015.04 1015.28 1015.56 1015.81 1016.00 1016.09 1016.11 1016.08 1016.05 1016.07 1016.16 1016.32 1016.53 1016.75 1016.93 1017.04 1017.05 1016.98 1016.86 1016.73 1016.65 1016.64 1016.71 1016.86 1017.06 1017.28 1017.49 1017.66 1017.80 1017.91
1010.32 1010.85 1011.56 1012.37 1013.19 1013.92 1014.48 1014.85 1015.03 1015.08 1015.07 1015.08 1015.14 1015.28 1015.48 1015.70 1015.90 1016.02 1016.07 1016.05 1016.01 1016.00 1016.05 1016.18 1016.39 1016.64 1016.87 1017.04 1017.11 1017.07 1016.93 1016.76 1016.59 1016.48 1016.46 1016.54 1016.72 1016.95 1017.20 1017.43 1017.63 1017.78 1017.90
1010.39 1010.91 1011.60 1012.39 1013.19 1013.91 1014.47 1014.86 1015.07 1015.17 1015.20 1015.23 1015.32 1015.46 1015.63 1015.81 1015.95 1016.02 1016.03 1015.99 1015.95 1015.96 1016.04 1016.21 1016.46 1016.72 1016.95 1017.09 1017.11 1017.01 1016.81 1016.57 1016.35 1016.20 1016.18 1016.28 1016.48 1016.74 1017.03 1017.29 1017.52 1017.69 1017.83
1010.51 1010.99 1011.63 1012.37 1013.12 1013.80 1014.35 1014.73 1014.97 1015.10 1015.18 1015.25 1015.37 1015.52 1015.69 1015.84 1015.94 1015.98 1015.96 1015.90 1015.87 1015.89 1016.00 1016.21 1016.47 1016.74 1016.96 1017.06 1017.03 1016.85 1016.59 1016.29 1016.02 1015.86 1015.83 1015.94 1016.16 1016.46 1016.78 1017.08 1017.33 1017.53 1017.69
1010.67 1011.09 1011.66 1012.33 1013.00 1013.62 1014.12 1014.49 1014.73 1014.89 1015.00 1015.12 1015.27 1015.44 1015.61 1015.76 1015.84 1015.86 1015.82 1015.76 1015.73 1015.76 1015.89 1016.11 1016.37 1016.63 1016.82 1016.89 1016.80 1016.58 1016.26 1015.92 1015.63 1015.46 1015.43 1015.56 1015.81 1016.13 1016.47 1016.79 1017.06 1017.27 1017.45
1010.82 1011.19 1011.69 1012.26 1012.85 1013.39 1013.84 1014.17 1014.40 1014.56 1014.70 1014.85 1015.02 1015.22 1015.40 1015.54 1015.62 1015.63 1015.59 1015.52 1015.49 1015.52 1015.65 1015.86 1016.11 1016.35 1016.51 1016.53 1016.42 1016.17 1015.83 1015.48 1015.19 1015.03 1015.02 1015.17 1015.43 1015.77 1016.12 1016.45 1016.72 1016.93 1017.11
1010.94 1011.27 1011.70 1012.19 1012.70 1013.16 1013.53 1013.82 1014.02 1014.17 1014.32 1014.48 1014.67 1014.87 1015.06 1015.21 1015.29 1015.30 1015.25 1015.18 1015.14 1015.16 1015.27 1015.45 1015.67 1015.87 1016.00 1016.00 1015.88 1015.63 1015.31 1014.99 1014.74 1014.61 1014.63 1014.80 1015.07 1015.41 1015.76 1016.06 1016.31 1016.51 1016.67
1011.03 1011.32 1011.70 1012.12 1012.55 1012.93 1013.24 1013.46 1013.63 1013.76 1013.89 1014.04 1014.23 1014.44 1014.63 1014.79 1014.87 1014.88 1014.84 1014.76 1014.70 1014.70 1014.77 1014.91 1015.08 1015.24 1015.34 1015.34 1015.22 1015.00 1014.74 1014.48 1014.28 1014.21 1014.28 1014.47 1014.75 1015.07 1015.39 1015.66 1015.87 1016.03 1016.16
1011.07 1011.34 1011.67 1012.04 1012.40 1012.72 1012.96 1013.13 1013.25 1013.35 1013.45 1013.59 1013.76 1013.96 1014.15 1014.31 1014.40 1014.42 1014.37 1014.30 1014.22 1014.19 1014.21 1014.29 1014.41 1014.53 1014.60 1014.60 1014.51 1014.35 1014.15 1013.97 1013.86 1013.85 1013.96 1014.17 1014.45 1014.74 1015.02 1015.24 1015.40 1015.51 1015.60
1011.05 1011.30 1011.61 1011.93 1012.24 1012.51 1012.70 1012.83 1012.90 1012.96 1013.03 1013.14 1013.29 1013.48 1013.66 1013.82 1013.92 1013.95 1013.92 1013.84 1013.75 1013.68 1013.66 1013.69 1013.75 1013.82 1013.87 1013.87 1013.82 1013.72 1013.60 1013.51 1013.48 1013.53 1013.68 1013.90 1014.16 1014.42 1014.64 1014.81 1014.92 1014.98 1015.02
1010.97 1011.21 1011.49 1011.79 1012.06 1012.29 1012.45 1012.54 1012.59 1012.61 1012.65 1012.73 1012.86 1013.02 1013.20 1013.36 1013.47 1013.52 1013.50 1013.43 1013.33 1013.24 1013.18 1013.16 1013.17 1013.20 1013.23 1013.23 1013.20 1013.16 1013.11 1013.09 1013.12 1013.22 1013.39 1013.60 1013.84 1014.05 1014.23 1014.35 1014.40 1014.42 1014.43
1010.84 1011.07 1011.33 1011.60 1011.85 1012.06 1012.21 1012.28 1012.31 1012.31 1012.32 1012.37 1012.47 1012.62 1012.78 1012.95 1013.07 1013.14 1013.15 1013.10 1013.01 1012.91 1012.82 1012.76 1012.72 1012.71 1012.71 1012.71 1012.70 1012.68 1012.67 1012.69 1012.76 1012.87 1013.04 1013.23 1013.43 1013.60 1013.73 1013.81 1013.83 1013.83 1013.82
1010.67 1010.87 1011.12 1011.38 1011.63 1011.83 1011.98 1012.05 1012.07 1012.07 1012.06 1012.08 1012.16 1012.28 1012.43 1012.59 1012.74 1012.83 1012.86 1012.84 1012.76 1012.66 1012.56 1012.47 1012.40 1012.35 1012.32 1012.30 1012.28 1012.27 1012.27 1012.29 1012.35 1012.44 1012.57 1012.72 1012.87 1013.00 1013.09 1013.14 1013.16 1013.16 1013.16
1010.47 1010.66 1010.89 1011.15 1011.40 1011.62 1011.77 1011.86 1011.89 1011.88 1011.86 1011.87 1011.92 1012.01 1012.15 1012.31 1012.45 1012.57 1012.62 1012.62 1012.57 1012.48 1012.37 1012.26 1012.16 1012.08 1012.01 1011.96 1011.91 1011.87 1011.85 1011.84 1011.85 1011.89 1011.96 1012.05 1012.14 1012.23 1012.29 1012.34 1012.37 1012.39 1012.43
1010.28 1010.46 1010.69 1010.95 1011.21 1011.44 1011.62 1011.72 1011.77 1011.76 1011.74 1011.73 1011.75 1011.82 1011.93 1012.07 1012.22 1012.33 1012.40 1012.42 1012.38 1012.30 1012.18 1012.06 1011.94 1011.83 1011.72 1011.63 1011.54 1011.46 1011.38 1011.31 1011.25 1011.22 1011.20 1011.22 1011.25 1011.29 1011.34 1011.39 1011.45 1011.52 1011.61
1010.11 1010.30 1010.52 1010.79 1011.06 1011.31 1011.51 1011.64 1011.70 1011.70 1011.67 1011.65 1011.65 1011.69 1011.77 1011.89 1012.01 1012.12 1012.19 1012.20 1012.17 1012.08 1011.96 1011.83 1011.68 1011.54 1011.40 1011.27 1011.13 1010.99 1010.85 1010.70 1010.56 1010.43 1010.34 1010.27 1010.24 1010.24 1010.27 1010.34 1010.44 1010.56 1010.71
1010.00 1010.18 1010.42 1010.69 1010.97 1011.23 1011.44 1011.58 1011.66 1011.67 1011.65 1011.61 1011.59 1011.61 1011.66 1011.74 1011.83 1011.92 1011.96 1011.97 1011.92 1011.82 1011.68 1011.53 1011.36 1011.19 1011.02 1010.85 1010.67 1010.48 1010.27 1010.05 1009.83 1009.62 1009.43 1009.29 1009.20 1009.17 1009.19 1009.27 1009.40 1009.58 1009.78
1009.94 1010.14 1010.37 1010.64 1010.91 1011.17 1011.38 1011.53 1011.61 1011.63 1011.61 1011.58 1011.55 1011.55 1011.57 1011.63 1011.69 1011.73 1011.75 1011.72 1011.64 1011.52 1011.36 1011.18 1010.98 1010.79 1010.59 1010.39 1010.18 1009.94 1009.68 1009.40 1009.12 1008.84 1008.59 1008.38 1008.25 1008.18 1008.19 1008.28 1008.44 1008.65 1008.90
1009.96 1010.16 1010.38 1010.63 1010.87 1011.10 1011.29 1011.43 1011.51 1011.54 1011.53 1011.51 1011.49 1011.48 1011.50 1011.53 1011.57 1011.58 1011.56 1011.50 1011.38 1011.21 1011.02 1010.80 1010.58 1010.36 1010.14 1009.91 1009.67 1009.41 1009.13 1008.82 1008.49 1008.17 1007.88 1007.64 1007.47 1007.38 1007.39 1007.48 1007.65 1007.88 1008.15
1010.08 1010.26 1010.44 1010.63 1010.82 1011.00 1011.15 1011.27 1011.34 1011.37 1011.38 1011.37 1011.37 1011.39 1011.42 1011.45 1011.47 1011.47 1011.42 1011.31 1011.15 1010.95 1010.71 1010.45 1010.19 1009.94 1009.69 1009.45 1009.20 1008.93 1008.64 1008.32 1007.99 1007.66 1007.36 1007.11 1006.93 1006.84 1006.84 1006.93 1007.10 1007.34 1007.61
1010.30 1010.43 1010.55 1010.66 1010.77 1010.88 1010.96 1011.03 1011.08 1011.12 1011.14 1011.16 1011.20 1011.25 1011.30 1011.35 1011.38 1011.37 1011.31 1011.17 1010.98 1010.73 1010.45 1010.15 1009.84 1009.56 1009.28 1009.02 1008.76 1008.49 1008.21 1007.91 1007.60 1007.30 1007.02 1006.79 1006.63 1006.55 1006.56 1006.66 1006.83 1007.05 1007.31
1010.66 1010.71 1010.73 1010.74 1010.75 1010.76 1010.77 1010.78 1010.79 1010.81 1010.85 1010.89 1010.96 1011.05 1011.14 1011.22 1011.27 1011.27 1011.20 1011.06 1010.84 1010.56 1010.23 1009.89 1009.54 1009.21 1008.90 1008.62 1008.34 1008.08 1007.81 1007.54 1007.27 1007.02 1006.79 1006.62 1006.50 1006.46 1006.50 1006.62 1006.79 1007.01 1007.26
1011.16 1011.10 1011.01 1010.91 1010.80 1010.71 1010.63 1010.57 1010.53 1010.53 1010.55 1010.61 1010.70 1010.81 1010.93 1011.04 1011.11 1011.13 1011.07 1010.92 1010.69 1010.39 1010.03 1009.65 1009.26 1008.88 1008.53 1008.21 1007.91 1007.64 1007.39 1007.16 1006.94 1006.75 1006.60 1006.50 1006.46 1006.49 1006.58 1006.73 1006.92 1007.15 1007.39
Thickness
5842 5836 5821 5816 5813 5811 5809 5808 5806 5802 5798 5794 5791 5788 5785 5783 5781 5779 5777 5775 5773 5771 5769 5766 5763 5760 5758 5757 5756 5754 5752 5751 5749 5748 5747 5747 5746 5744 5743 5742 5741 5741 5737
5846 5835 5821 5816 5812 5810 5807 5806 5804 5800 5796 5793 5789 5787 5784 5782 5780 5777 5776 5774 5772 5770 5769 5766 5764 5761 5758 5756 5754 5753 5751 5750 5748 5748 5747 5746 5745 5743 5742 5742 5742 5742 5738
5845 5834 5822 5816 5812 5809 5806 5804 5802 5799 5796 5792 5789 5785 5783 5781 5779 5777 5775 5773 5772 5770 5768 5766 5764 5761 5758 5756 5754 5752 5751 5750 5748 5748 5748 5751 5747 5743 5742 5741 5740 5739 5737
5844 5834 5825 5816 5812 5808 5805 5802 5800 5797 5794 5791 5788 5785 5782 5780 5778 5777 5775 5773 5771 5769 5768 5766 5764 5761 5758 5756 5754 5752 5751 5750 5749 5748 5753 5755 5751 5745 5742 5741 5740 5738 5737
5842 5833 5824 5815 5811 5807 5803 5800 5797 5794 5791 5788 5786 5784 5781 5779 5778 5776 5775 5773 5771 5769 5767 5765 5764 5761 5758 5755 5753 5751 5750 5749 5748 5749 5756 5754 5752 5745 5743 5741 5740 5738 5737
5837 5832 5822 5814 5809 5806 5803 5800 5797 5793 5790 5788 5785 5783 5781 5779 5777 5776 5775 5773 5771 5769 5767 5765 5762 5760 5758 5755 5753 5750 5749 5748 5749 5755 5756 5753 5752 5745 5743 5741 5740 5739 5737
5837 5832 5820 5812 5808 5805 5801 5799 5796 5792 5789 5786 5784 5782 5780 5779 5777 5775 5774 5773 5771 5769 5767 5764 5762 5759 5757 5755 5753 5751 5750 5749 5750 5758 5757 5754 5751 5746 5743 5742 5741 5740 5739
5837 5832 5820 5810 5807 5803 5800 5798 5795 5792 5788 5785 5783 5780 5778 5777 5776 5774 5772 5771 5769 5768 5766 5764 5761 5759 5757 5756 5754 5753 5751 5750 5754 5758 5758 5757 5754 5748 5745 5743 5743 5742 5741
5838 5834 5822 5813 5807 5802 5799 5795 5793 5790 5788 5785 5782 5779 5777 5776 5774 5772 5771 5769 5768 5766 5765 5763 5762 5760 5758 5757 5755 5754 5753 5752 5753 5759 5760 5759 5756 5750 5747 5745 5745 5744 5743
5834 5832 5823 5819 5812 5806 5800 5794 5791 5788 5786 5783 5781 5778 5776 5774 5773 5771 5769 5768 5766 5765 5763 5762 5761 5760 5759 5758 5756 5755 5754 5753 5757 5763 5764 5762 5756 5751 5748 5747 5747 5746 5745
5826 5826 5824 5821 5813 5808 5804 5798 5790 5786 5784 5781 5779 5777 5774 5775 5777 5774 5771 5769 5766 5764 5763 5762 5761 5760 5759 5759 5758 5757 5755 5758 5764 5766 5765 5762 5756 5752 5749 5748 5748 5747 5746
5819 5820 5819 5818 5811 5806 5803 5798 5792 5789 5786 5782 5782 5780 5776 5776 5776 5775 5773 5768 5765 5763 5762 5761 5760 5759 5758 5763 5765 5760 5760 5762 5763 5764 5764 5760 5755 5751 5750 5749 5748 5748 5747
5820 5816 5814 5811 5807 5804 5799 5796 5792 5790 5787 5782 5779 5776 5774 5774 5772 5771 5770 5769 5766 5764 5764 5764 5762 5761 5763 5764 5763 5763 5762 5762 5763 5762 5762 5758 5754 5751 5750 5750 5749 5748 5748
5818 5813 5812 5807 5801 5796 5794 5791 5787 5785 5782 5779 5775 5772 5769 5768 5767 5767 5765 5767 5767 5766 5763 5761 5760 5760 5759 5758 5757 5756 5756 5754 5756 5757 5756 5753 5751 5750 5750 5750 5750 5749 5749
5812 5810 5807 5801 5795 5789 5784 5782 5781 5779 5779 5777 5771 5768 5764 5762 5761 5760 5759 5758 5758 5759 5758 5755 5754 5753 5752 5752 5752 5752 5752 5750 5749 5749 5749 5748 5748 5748 5748 5750 5750 5750 5750
5808 5805 5803 5796 5790 5783 5778 5775 5774 5774 5772 5771 5767 5763 5759 5755 5754 5753 5752 5751 5752 5751 5750 5748 5747 5745 5745 5746 5746 5747 5747 5747 5746 5744 5744 5744 5745 5747 5748 5748 5749 5749 5750
5804 5801 5797 5792 5787 5780 5775 5773 5772 5770 5768 5765 5761 5757 5754 5751 5749 5748 5747 5747 5749 5748 5746 5745 5745 5743 5742 5742 5741 5742 5743 5742 5742 5741 5739 5739 5743 5746 5747 5748 5748 5748 5749
5803 5796 5792 5789 5783 5775 5771 5768 5767 5765 5763 5759 5754 5751 5749 5747 5745 5744 5744 5744 5745 5743 5743 5742 5741 5740 5739 5738 5738 5739 5739 5739 5740 5739 5737 5737 5739 5742 5747 5748 5747 5746 5747
5798 5792 5786 5781 5775 5769 5766 5764 5762 5759 5755 5753 5750 5747 5745 5744 5743 5741 5740 5740 5739 5740 5740 5739 5739 5735 5733 5734 5735 5736 5737 5738 5739 5738 5737 5738 5739 5740 5744 5747 5745 5745 5745
5792 5787 5781 5775 5770 5766 5763 5759 5756 5753 5751 5749 5747 5743 5740 5740 5738 5736 5737 5736 5735 5735 5735 5734 5731 5730 5729 5729 5731 5735 5737 5739 5739 5739 5738 5739 5741 5742 5744 5745 5745 5745 5744
5784 5778 5773 5769 5764 5760 5756 5753 5749 5747 5746 5745 5743 5738 5736 5734 5732 5729 5730 5728 5727 5727 5727 5726 5725 5725 5725 5727 5725 5727 5733 5738 5739 5739 5738 5738 5741 5744 5744 5744 5743 5744 5745
5776 5771 5765 5761 5759 5755 5751 5747 5743 5741 5741 5740 5738 5734 5732 5729 5726 5726 5722 5722 5722 5720 5718 5718 5717 5717 5721 5723 5720 5719 5722 5730 5736 5739 5737 5736 5738 5741 5743 5744 5742 5740 5739
5767 5763 5760 5756 5752 5749 5746 5743 5738 5734 5734 5734 5733 5731 5729 5724 5721 5719 5717 5716 5716 5714 5714 5711 5708 5708 5711 5716 5719 5716 5715 5721 5731 5738 5738 5736 5734 5735 5738 5740 5740 5738 5736
5760 5758 5754 5750 5746 5743 5739 5737 5733 5728 5728 5730 5729 5729 5724 5720 5717 5715 5713 5712 5711 5711 5708 5706 5705 5702 5701 5704 5710 5714 5715 5718 5717 5722 5730 5733 5731 5729 5732 5734 5735 5733 5731
5752 5750 5747 5743 5739 5737 5734 5731 5727 5726 5728 5728 5725 5721 5717 5717 5713 5711 5709 5708 5707 5707 5706 5703 5699 5697 5697 5697 5699 5704 5708 5709 5710 5710 5716 5724 5726 5726 5727 5726 5727 5727 5726
5740 5739 5738 5735 5732 5731 5729 5727 5723 5721 5720 5719 5717 5716 5715 5715 5712 5709 5705 5703 5703 5703 5701 5698 5696 5693 5692 5692 5693 5696 5698 5702 5705 5708 5709 5713 5716 5719 5718 5717 5718 5717 5717